This is the latest recevied weather packets stored in our database for station/object KC3ULW-13. If no packets are shown the sender has not sent any weather packets the latest 10 day(s).
| Time | Temp. | Humidity | Pressure | Rain* | Wind** | Luminosity | Snow |
|---|---|---|---|---|---|---|---|
| 1777898082 | 13.33° C | 54% | 1013.6 hPa | 0 mm | - | 60 W/m² | - |
| 1777897778 | 12.78° C | 54% | 1013.3 hPa | 0 mm | - | 55 W/m² | - |
| 1777897475 | 12.78° C | 55% | 1013.5 hPa | 0 mm | - | 53 W/m² | - |
| 1777897171 | 12.78° C | 55% | 1013.5 hPa | 0 mm | - | 52 W/m² | - |
| 1777896867 | 12.22° C | 56% | 1013.3 hPa | 0 mm | - | 49 W/m² | - |
| 1777896565 | 12.22° C | 56% | 1013.5 hPa | 0 mm | - | 49 W/m² | - |
| 1777896261 | 12.22° C | 56% | 1013.1 hPa | 0 mm | - | 47 W/m² | - |
| 1777895960 | 12.22° C | 56% | 1013.4 hPa | 0 mm | - | 46 W/m² | - |
| 1777895657 | 11.67° C | 56% | 1013.4 hPa | 0 mm | - | 45 W/m² | - |
| 1777895354 | 11.67° C | 57% | 1013.4 hPa | 0 mm | - | 42 W/m² | - |
| 1777895052 | 11.67° C | 57% | 1013.5 hPa | 0 mm | - | 42 W/m² | - |
| 1777894749 | 11.67° C | 58% | 1013.2 hPa | 0 mm | - | 41 W/m² | - |
| 1777894445 | 11.11° C | 57% | 1013.5 hPa | 0 mm | - | 38 W/m² | - |
| 1777894143 | 11.67° C | 58% | 1013.7 hPa | 0 mm | - | 34 W/m² | - |
| 1777893840 | 11.11° C | 57% | 1013.5 hPa | 0 mm | - | 41 W/m² | - |
| 1777893536 | 10.56° C | 59% | 1013.5 hPa | 0 mm | - | 53 W/m² | - |
| 1777893232 | 10.56° C | 58% | 1013.6 hPa | 0 mm | - | 36 W/m² | - |
| 1777892929 | 10.56° C | 58% | 1013.7 hPa | 0 mm | - | 30 W/m² | - |
| 1777892626 | 10.56° C | 58% | 1013.6 hPa | 0 mm | - | 25 W/m² | - |
| 1777892321 | 10.56° C | 58% | 1013.6 hPa | 0 mm | - | 20 W/m² | - |
| 1777892018 | 10.56° C | 58% | 1013.7 hPa | 0 mm | - | 19 W/m² | - |
| 1777891716 | 10.56° C | 58% | 1013.5 hPa | 0 mm | - | 19 W/m² | - |
| 1777891412 | 10.56° C | 58% | 1013.6 hPa | 0 mm | - | 12 W/m² | - |
| 1777891107 | 10.56° C | 58% | 1013.4 hPa | 0 mm | - | 8 W/m² | - |
| 1777890802 | 10.56° C | 58% | 1013.6 hPa | 0 mm | - | 5 W/m² | - |
* Rain latest hour (hover to see other rain measurements)
** Current wind speed in m/s (hover to see current wind gust speed)